| time (UTC) | temp C | wind direction | speed KPH | gust KPH | rain 1hr cm | rain 24hr cm | rain mn cm | humidity % | barometer mb |
| 20260509030057 | 22 | 107 | 3.2 | 11.3 | 0.00 | 0.00 | 0.00 | 89 | 1011.9 |
| 20260509030049 | 22 | 107 | 1.6 | 14.5 | 0.00 | 0.00 | 0.00 | 88 | 1009.4 |
| 20260509024556 | 23 | 98 | 3.2 | 12.9 | 0.00 | 0.00 | 0.00 | 88 | 1011.8 |
| 20260509024544 | 23 | 86 | 3.2 | 12.9 | 0.00 | 0.00 | 0.00 | 88 | 1009.2 |
| 20260509023053 | 23 | 119 | 3.2 | 12.9 | 0.00 | 0.00 | 0.00 | 88 | 1011.7 |
| 20260509023046 | 23 | 119 | 6.4 | 12.9 | 0.00 | 0.00 | 0.00 | 87 | 1009.0 |
| 20260509021552 | 23 | 70 | 3.2 | 9.7 | 0.00 | 0.00 | 0.00 | 87 | 1011.7 |
| 20260509021548 | 23 | 78 | 3.2 | 9.7 | 0.00 | 0.00 | 0.00 | 87 | 1009.1 |
| 20260509020051 | 23 | 56 | 3.2 | 8.0 | 0.00 | 0.00 | 0.00 | 85 | 1008.6 |
| 20260509014551 | 23 | 48 | 1.6 | 6.4 | 0.00 | 0.00 | 0.00 | 85 | 1011.0 |
| 20260509014544 | 23 | 48 | 1.6 | 8.0 | 0.00 | 0.00 | 0.00 | 84 | 1008.3 |
| 20260509013053 | 23 | 57 | 1.6 | 6.4 | 0.00 | 0.00 | 0.00 | 84 | 1010.8 |
| 20260509013051 | 23 | 57 | 1.6 | 6.4 | 0.00 | 0.00 | 0.00 | 83 | 1007.9 |
| 20260509011558 | 23 | 45 | 3.2 | 8.0 | 0.00 | 0.00 | 0.00 | 83 | 1010.9 |
| 20260509011556 | 23 | 45 | 3.2 | 9.7 | 0.00 | 0.00 | 0.00 | 82 | 1008.2 |
| 20260509010050 | 24 | 73 | 3.2 | 9.7 | 0.00 | 0.00 | 0.00 | 82 | 1010.7 |
| 20260509004605 | 24 | 78 | 3.2 | 11.3 | 0.00 | 0.00 | 0.00 | 81 | 1010.6 |
| 20260509003049 | 25 | 90 | 3.2 | 12.9 | 0.00 | 0.00 | 0.00 | 80 | 1010.6 |
| 20260509003044 | 25 | 49 | 4.8 | 14.5 | 0.00 | 0.00 | 0.00 | 80 | 1007.9 |
| 20260509001547 | 25 | 105 | 6.4 | 12.9 | 0.00 | 0.00 | 0.00 | 79 | 1010.7 |
| 20260509001542 | 25 | 85 | 6.4 | 12.9 | 0.00 | 0.00 | 0.00 | 79 | 1007.8 |
| 20260509000047 | 25 | 32 | 3.2 | 6.4 | 0.00 | 0.00 | 0.00 | 79 | 1010.8 |
| 20260509000042 | 25 | 32 | 3.2 | 6.4 | 0.00 | 0.00 | 0.00 | 79 | 1008.0 |
| 20260508234548 | 25 | 44 | 4.8 | 12.9 | 0.00 | 0.00 | 0.00 | 79 | 1008.0 |
| 20260508234546 | 25 | 48 | 6.4 | 11.3 | 0.00 | 0.00 | 0.00 | 79 | 1010.8 |
| 20260508233045 | 25 | 118 | 6.4 | 11.3 | 0.00 | 0.00 | 0.00 | 79 | 1010.8 |
| 20260508233042 | 25 | 117 | 4.8 | 11.3 | 0.00 | 0.00 | 0.00 | 78 | 1008.0 |
| 20260508231546 | 25 | 18 | 3.2 | 11.3 | 0.00 | 0.00 | 0.00 | 79 | 1008.2 |
| 20260508231544 | 25 | 17 | 3.2 | 11.3 | 0.00 | 0.00 | 0.00 | 79 | 1010.8 |
| 20260508230044 | 25 | 51 | 3.2 | 11.3 | 0.00 | 0.00 | 0.00 | 78 | 1008.2 |
| 20260508224544 | 25 | 53 | 6.4 | 14.5 | 0.00 | 0.00 | 0.00 | 78 | 1008.0 |
| 20260508224541 | 25 | 53 | 6.4 | 14.5 | 0.00 | 0.00 | 0.00 | 79 | 1011.0 |
| 20260508223051 | 25 | 90 | 3.2 | 11.3 | 0.00 | 0.00 | 0.00 | 78 | 1008.4 |
| 20260508223048 | 25 | 94 | 3.2 | 11.3 | 0.00 | 0.00 | 0.00 | 79 | 1011.1 |
| 20260508221543 | 25 | 49 | 3.2 | 11.3 | 0.00 | 0.00 | 0.00 | 79 | 1008.5 |
| 20260508221541 | 25 | 76 | 3.2 | 11.3 | 0.00 | 0.00 | 0.00 | 79 | 1011.2 |
| 20260508220046 | 24 | 160 | 3.2 | 12.9 | 0.00 | 0.00 | 0.00 | 79 | 1008.6 |
| 20260508220036 | 24 | 159 | 4.8 | 11.3 | 0.00 | 0.00 | 0.00 | 79 | 1011.4 |
| 20260508214554 | 24 | 130 | 4.8 | 12.9 | 0.00 | 0.00 | 0.00 | 80 | 1008.7 |
| 20260508214538 | 24 | 109 | 6.4 | 12.9 | 0.00 | 0.00 | 0.00 | 80 | 1011.6 |
| 20260508213044 | 24 | 83 | 4.8 | 16.1 | 0.00 | 0.00 | 0.00 | 79 | 1008.8 |
| 20260508213036 | 24 | 83 | 3.2 | 16.1 | 0.00 | 0.00 | 0.00 | 79 | 1011.7 |
| 20260508211551 | 24 | 153 | 4.8 | 12.9 | 0.00 | 0.00 | 0.00 | 79 | 1008.9 |
| 20260508211534 | 24 | 153 | 3.2 | 12.9 | 0.00 | 0.00 | 0.00 | 79 | 1011.8 |
| 20260508210049 | 24 | 122 | 8.0 | 16.1 | 0.00 | 0.00 | 0.00 | 79 | 1009.3 |
| 20260508210031 | 24 | 122 | 8.0 | 16.1 | 0.00 | 0.00 | 0.00 | 79 | 1012.1 |
| 20260508204545 | 24 | 157 | 4.8 | 16.1 | 0.00 | 0.00 | 0.00 | 79 | 1009.7 |
| 20260508204533 | 24 | 157 | 4.8 | 14.5 | 0.00 | 0.00 | 0.00 | 80 | 1012.4 |
| 20260508203051 | 25 | 156 | 8.0 | 16.1 | 0.00 | 0.00 | 0.00 | 78 | 1009.8 |
| 20260508203029 | 25 | 156 | 4.8 | 16.1 | 0.00 | 0.00 | 0.00 | 79 | 1012.6 |
| 20260508201544 | 25 | 146 | 4.8 | 12.9 | 0.00 | 0.00 | 0.00 | 78 | 1009.7 |
| 20260508201530 | 25 | 146 | 4.8 | 12.9 | 0.00 | 0.00 | 0.00 | 79 | 1012.5 |
| 20260508200045 | 25 | 78 | 4.8 | 14.5 | 0.00 | 0.00 | 0.00 | 78 | 1009.7 |
| 20260508200026 | 25 | 77 | 6.4 | 14.5 | 0.00 | 0.00 | 0.00 | 78 | 1012.6 |
| 20260508194545 | 24 | 98 | 6.4 | 14.5 | 0.00 | 0.00 | 0.00 | 79 | 1009.8 |
| 20260508194521 | 24 | 88 | 6.4 | 14.5 | 0.00 | 0.00 | 0.00 | 79 | 1012.7 |
| 20260508193055 | 24 | 72 | 4.8 | 14.5 | 0.00 | 0.00 | 0.00 | 79 | 1009.9 |
| 20260508193018 | 24 | 73 | 4.8 | 14.5 | 0.00 | 0.00 | 0.00 | 79 | 1012.9 |
| 20260508191544 | 24 | 119 | 4.8 | 14.5 | 0.00 | 0.00 | 0.00 | 79 | 1010.0 |
| 20260508191514 | 24 | 119 | 6.4 | 14.5 | 0.00 | 0.00 | 0.00 | 80 | 1012.9 |
| 20260508190043 | 24 | 70 | 6.4 | 14.5 | 0.00 | 0.00 | 0.00 | 80 | 1010.1 |
| 20260508190008 | 24 | 77 | 8.0 | 14.5 | 0.00 | 0.00 | 0.00 | 80 | 1013.0 |
| 20260508184550 | 23 | 109 | 8.0 | 16.1 | 0.00 | 0.00 | 0.00 | 80 | 1010.3 |
| 20260508184506 | 23 | 127 | 8.0 | 16.1 | 0.00 | 0.00 | 0.00 | 80 | 1013.4 |
| 20260508183047 | 23 | 99 | 8.0 | 17.7 | 0.00 | 0.00 | 0.00 | 79 | 1010.4 |
| 20260508183003 | 23 | 109 | 8.0 | 17.7 | 0.00 | 0.00 | 0.00 | 79 | 1013.5 |
| 20260508181605 | 22 | 138 | 4.8 | 14.5 | 0.00 | 0.00 | 0.00 | 81 | 1013.8 |
| 20260508181555 | 22 | 155 | 4.8 | 16.1 | 0.00 | 0.00 | 0.00 | 81 | 1010.6 |
| 20260508180055 | 22 | 54 | 4.8 | 16.1 | 0.00 | 0.00 | 0.00 | 82 | 1014.0 |
| 20260508180049 | 22 | 116 | 8.0 | 16.1 | 0.00 | 0.00 | 0.00 | 81 | 1010.8 |
| 20260508174555 | 21 | 149 | 4.8 | 11.3 | 0.00 | 0.00 | 0.00 | 84 | 1014.5 |
| 20260508174541 | 21 | 145 | 3.2 | 11.3 | 0.00 | 0.00 | 0.00 | 84 | 1011.2 |
| 20260508173048 | 20 | 144 | 0.0 | 9.7 | 0.00 | 0.00 | 0.00 | 84 | 1014.6 |
| 20260508171546 | 20 | 156 | 3.2 | 8.0 | 0.00 | 0.00 | 0.00 | 85 | 1011.6 |
| 20260508170050 | 20 | 0 | 0.0 | 4.8 | 0.00 | 0.00 | 0.00 | 85 | 1011.9 |
| 20260508170044 | 20 | 48 | 0.0 | 1.6 | 0.00 | 0.00 | 0.00 | 86 | 1014.8 |
| 20260508164548 | 20 | 49 | 1.6 | 6.4 | 0.00 | 0.00 | 0.00 | 85 | 1012.1 |
| 20260508164541 | 20 | 49 | 1.6 | 6.4 | 0.00 | 0.00 | 0.00 | 86 | 1014.9 |
| 20260508163048 | 20 | 11 | 1.6 | 6.4 | 0.00 | 0.00 | 0.00 | 85 | 1011.9 |
| 20260508163046 | 20 | 11 | 3.2 | 6.4 | 0.00 | 0.00 | 0.00 | 85 | 1014.9 |
| 20260508161545 | 19 | 46 | 3.2 | 11.3 | 0.00 | 0.00 | 0.00 | 86 | 1012.2 |
| 20260508161538 | 19 | 46 | 3.2 | 11.3 | 0.00 | 0.00 | 0.00 | 86 | 1015.1 |
| 20260508160121 | 18 | 47 | 3.2 | 8.0 | 0.00 | 0.00 | 0.00 | 86 | 1012.3 |
| 20260508160054 | 18 | 47 | 3.2 | 8.0 | 0.00 | 0.00 | 0.00 | 87 | 1015.1 |
| 20260508154544 | 18 | 69 | 1.6 | 8.0 | 0.00 | 0.00 | 0.00 | 87 | 1012.5 |
| 20260508154529 | 18 | 55 | 1.6 | 8.0 | 0.00 | 0.00 | 0.00 | 88 | 1015.4 |
| 20260508153051 | 18 | 59 | 3.2 | 8.0 | 0.00 | 0.00 | 0.00 | 87 | 1012.7 |
| 20260508153030 | 18 | 60 | 3.2 | 8.0 | 0.00 | 0.00 | 0.00 | 88 | 1015.8 |
| 20260508151553 | 18 | 352 | 0.0 | 9.7 | 0.00 | 0.00 | 0.00 | 88 | 1013.0 |
| 20260508151528 | 18 | 355 | 0.0 | 8.0 | 0.00 | 0.00 | 0.00 | 88 | 1016.2 |
| 20260508150049 | 18 | 352 | 3.2 | 9.7 | 0.00 | 0.00 | 0.00 | 88 | 1013.1 |
| 20260508150033 | 18 | 355 | 1.6 | 9.7 | 0.00 | 0.00 | 0.00 | 88 | 1016.2 |
| 20260508144547 | 18 | 0 | 1.6 | 12.9 | 0.00 | 0.00 | 0.00 | 89 | 1013.0 |
| 20260508144526 | 18 | 61 | 1.6 | 12.9 | 0.00 | 0.00 | 0.00 | 89 | 1016.2 |
| 20260508143056 | 17 | 13 | 3.2 | 9.7 | 0.00 | 0.00 | 0.00 | 89 | 1012.8 |
| 20260508143031 | 17 | 13 | 4.8 | 9.7 | 0.00 | 0.00 | 0.00 | 90 | 1016.1 |
| 20260508141553 | 17 | 352 | 1.6 | 9.7 | 0.00 | 0.00 | 0.00 | 89 | 1013.2 |
| 20260508141531 | 17 | 355 | 0.0 | 9.7 | 0.00 | 0.00 | 0.00 | 89 | 1016.4 |
| 20260508140048 | 17 | 40 | 3.2 | 8.0 | 0.00 | 0.00 | 0.00 | 88 | 1013.1 |
| 20260508140023 | 17 | 40 | 1.6 | 8.0 | 0.00 | 0.00 | 0.00 | 89 | 1016.3 |
| 20260508134543 | 17 | 78 | 3.2 | 8.0 | 0.00 | 0.00 | 0.00 | 88 | 1012.9 |
| 20260508134530 | 17 | 78 | 3.2 | 8.0 | 0.00 | 0.00 | 0.00 | 88 | 1016.2 |
| 20260508133055 | 17 | 0 | 0.0 | 8.0 | 0.00 | 0.00 | 0.00 | 87 | 1012.8 |
| 20260508133023 | 17 | 76 | 0.0 | 6.4 | 0.00 | 0.00 | 0.00 | 87 | 1016.0 |
| 20260508131545 | 16 | 51 | 4.8 | 11.3 | 0.00 | 0.00 | 0.00 | 86 | 1012.6 |
| 20260508131522 | 17 | 51 | 3.2 | 9.7 | 0.00 | 0.00 | 0.00 | 87 | 1015.6 |
| 20260508130053 | 16 | 76 | 3.2 | 11.3 | 0.00 | 0.00 | 0.00 | 86 | 1012.7 |
| 20260508130022 | 16 | 77 | 3.2 | 11.3 | 0.00 | 0.00 | 0.00 | 86 | 1015.8 |
| 20260508124548 | 16 | 355 | 3.2 | 9.7 | 0.00 | 0.00 | 0.00 | 87 | 1012.9 |
| 20260508124511 | 16 | 355 | 3.2 | 9.7 | 0.00 | 0.00 | 0.00 | 87 | 1016.1 |
| 20260508123046 | 16 | 64 | 1.6 | 8.0 | 0.00 | 0.00 | 0.00 | 86 | 1012.7 |
| 20260508123012 | 16 | 58 | 1.6 | 8.0 | 0.00 | 0.00 | 0.00 | 87 | 1016.0 |
| 20260508121601 | 17 | 22 | 1.6 | 9.7 | 0.00 | 0.00 | 0.00 | 86 | 1012.9 |
| 20260508121521 | 17 | 22 | 1.6 | 9.7 | 0.00 | 0.00 | 0.00 | 86 | 1016.1 |
| 20260508120046 | 17 | 46 | 3.2 | 11.3 | 0.00 | 0.00 | 0.00 | 85 | 1013.1 |
| 20260508120007 | 17 | 53 | 3.2 | 9.7 | 0.00 | 0.00 | 0.00 | 86 | 1016.4 |
| 20260508114551 | 17 | 343 | 1.6 | 9.7 | 0.00 | 0.00 | 0.00 | 86 | 1013.5 |
| 20260508114507 | 17 | 360 | 1.6 | 9.7 | 0.00 | 0.00 | 0.00 | 86 | 1016.7 |
| 20260508113043 | 17 | 32 | 0.0 | 9.7 | 0.00 | 0.00 | 0.00 | 86 | 1013.2 |
| 20260508113006 | 16 | 32 | 0.0 | 9.7 | 0.00 | 0.00 | 0.00 | 86 | 1016.4 |
| 20260508111542 | 16 | 17 | 4.8 | 16.1 | 0.00 | 0.00 | 0.00 | 87 | 1013.0 |
| 20260508111505 | 17 | 17 | 4.8 | 9.7 | 0.00 | 0.00 | 0.00 | 88 | 1016.2 |
| 20260508110053 | 17 | 360 | 4.8 | 19.3 | 0.00 | 0.00 | 0.00 | 88 | 1012.4 |
| 20260508110005 | 17 | 5 | 4.8 | 19.3 | 0.00 | 0.00 | 0.00 | 88 | 1015.5 |
| 20260508104544 | 17 | 42 | 1.6 | 8.0 | 0.00 | 0.00 | 0.00 | 89 | 1012.8 |
| 20260508104505 | 17 | 43 | 1.6 | 8.0 | 0.00 | 0.00 | 0.00 | 90 | 1016.0 |
| 20260508103054 | 17 | 0 | 0.0 | 4.8 | 0.00 | 0.00 | 0.00 | 89 | 1013.8 |
| 20260508103013 | 17 | 306 | 0.0 | 4.8 | 0.00 | 0.00 | 0.00 | 90 | 1016.9 |
| 20260508101542 | 17 | 0 | 0.0 | 3.2 | 0.00 | 0.00 | 0.00 | 89 | 1013.1 |
| 20260508101503 | 17 | 306 | 0.0 | 1.6 | 0.00 | 0.00 | 0.00 | 89 | 1016.4 |
| 20260508100042 | 17 | 306 | 0.0 | 4.8 | 0.00 | 0.00 | 0.00 | 88 | 1012.8 |
| 20260508100002 | 17 | 306 | 0.0 | 4.8 | 0.00 | 0.00 | 0.00 | 88 | 1015.9 |
| 20260508094603 | 17 | 0 | 0.0 | 4.8 | 0.00 | 0.00 | 0.00 | 87 | 1013.1 |
| 20260508094501 | 17 | 292 | 0.0 | 3.2 | 0.00 | 0.00 | 0.00 | 87 | 1016.2 |
| 20260508093100 | 17 | 109 | 0.0 | 3.2 | 0.00 | 0.00 | 0.00 | 85 | 1015.7 |
| 20260508093041 | 17 | 109 | 0.0 | 12.9 | 0.00 | 0.00 | 0.00 | 84 | 1012.5 |
| 20260508091604 | 17 | 142 | 6.4 | 11.3 | 0.00 | 0.00 | 0.00 | 83 | 1015.6 |
| 20260508091543 | 17 | 107 | 4.8 | 11.3 | 0.00 | 0.00 | 0.00 | 82 | 1012.4 |
| 20260508090055 | 17 | 350 | 3.2 | 8.0 | 0.00 | 0.00 | 0.00 | 82 | 1016.3 |
| 20260508090045 | 17 | 350 | 1.6 | 8.0 | 0.00 | 0.00 | 0.00 | 81 | 1013.1 |
| 20260508084554 | 17 | 5 | 4.8 | 9.7 | 0.00 | 0.00 | 0.00 | 82 | 1016.3 |
| 20260508084547 | 17 | 5 | 4.8 | 11.3 | 0.00 | 0.00 | 0.00 | 82 | 1013.1 |
| 20260508083132 | 17 | 53 | 3.2 | 6.4 | 0.00 | 0.00 | 0.00 | 82 | 1016.4 |
| 20260508083117 | 17 | 53 | 1.6 | 6.4 | 0.00 | 0.00 | 0.00 | 82 | 1013.2 |
| 20260508081556 | 17 | 80 | 3.2 | 8.0 | 0.00 | 0.00 | 0.00 | 81 | 1016.3 |
| 20260508081554 | 17 | 80 | 4.8 | 8.0 | 0.00 | 0.00 | 0.00 | 81 | 1013.2 |
| 20260508080056 | 17 | 78 | 4.8 | 11.3 | 0.00 | 0.00 | 0.00 | 80 | 1016.1 |
| 20260508080052 | 17 | 78 | 3.2 | 11.3 | 0.00 | 0.00 | 0.00 | 79 | 1012.9 |
| 20260508074549 | 18 | 130 | 1.6 | 4.8 | 0.00 | 0.00 | 0.00 | 76 | 1016.7 |
| 20260508074539 | 18 | 130 | 1.6 | 4.8 | 0.00 | 0.00 | 0.00 | 76 | 1013.6 |
| 20260508073055 | 18 | 48 | 0.0 | 4.8 | 0.00 | 0.00 | 0.00 | 75 | 1017.0 |
| 20260508073052 | 18 | 48 | 0.0 | 6.4 | 0.00 | 0.00 | 0.00 | 74 | 1014.0 |
| 20260508071549 | 18 | 45 | 3.2 | 8.0 | 0.00 | 0.00 | 0.00 | 74 | 1017.2 |
| 20260508071546 | 18 | 47 | 3.2 | 8.0 | 0.00 | 0.00 | 0.00 | 74 | 1014.1 |
| 20260508070046 | 18 | 37 | 1.6 | 4.8 | 0.00 | 0.00 | 0.00 | 74 | 1017.0 |
| 20260508064603 | 18 | 36 | 3.2 | 9.7 | 0.00 | 0.00 | 0.00 | 73 | 1017.2 |
| 20260508063046 | 18 | 30 | 1.6 | 6.4 | 0.00 | 0.00 | 0.00 | 73 | 1017.4 |
| 20260508063040 | 18 | 30 | 1.6 | 6.4 | 0.00 | 0.00 | 0.00 | 72 | 1014.2 |
| 20260508061545 | 18 | 360 | 3.2 | 14.5 | 0.00 | 0.00 | 0.00 | 73 | 1017.1 |
| 20260508060045 | 18 | 46 | 6.4 | 16.1 | 0.00 | 0.00 | 0.00 | 73 | 1016.7 |
| 20260508054543 | 18 | 60 | 8.0 | 14.5 | 0.00 | 0.00 | 0.00 | 72 | 1013.5 |
| 20260508054541 | 18 | 53 | 8.0 | 14.5 | 0.00 | 0.00 | 0.00 | 73 | 1016.5 |
| 20260508053042 | 18 | 88 | 3.2 | 9.7 | 0.00 | 0.00 | 0.00 | 73 | 1014.2 |
| 20260508053037 | 18 | 88 | 3.2 | 9.7 | 0.00 | 0.00 | 0.00 | 73 | 1017.4 |
| 20260508051542 | 18 | 0 | 0.0 | 3.2 | 0.00 | 0.00 | 0.00 | 72 | 1015.2 |
| 20260508051535 | 18 | 338 | 0.0 | 3.2 | 0.00 | 0.00 | 0.00 | 73 | 1018.4 |
| 20260508050049 | 18 | 337 | 0.0 | 9.7 | 0.00 | 0.00 | 0.00 | 73 | 1014.7 |
| 20260508050041 | 18 | 337 | 0.0 | 4.8 | 0.00 | 0.00 | 0.00 | 73 | 1017.7 |
| 20260508044543 | 18 | 314 | 1.6 | 12.9 | 0.00 | 0.00 | 0.00 | 72 | 1015.1 |
| 20260508044532 | 18 | 314 | 1.6 | 6.4 | 0.00 | 0.00 | 0.00 | 73 | 1018.2 |
| 20260508043042 | 18 | 319 | 3.2 | 14.5 | 0.00 | 0.00 | 0.00 | 72 | 1014.3 |
| 20260508043035 | 18 | 319 | 3.2 | 12.9 | 0.00 | 0.00 | 0.00 | 72 | 1017.5 |
| 20260508041546 | 18 | 22 | 3.2 | 14.5 | 0.00 | 0.00 | 0.00 | 70 | 1013.3 |
| 20260508041529 | 18 | 22 | 3.2 | 14.5 | 0.00 | 0.00 | 0.00 | 71 | 1016.3 |
| 20260508040048 | 18 | 39 | 9.7 | 17.7 | 0.00 | 0.00 | 0.00 | 70 | 1012.6 |
| 20260508040033 | 18 | 39 | 8.0 | 17.7 | 0.00 | 0.00 | 0.00 | 70 | 1015.7 |
| 20260508034542 | 18 | 63 | 4.8 | 14.5 | 0.00 | 0.00 | 0.00 | 70 | 1013.6 |
| 20260508034529 | 18 | 63 | 3.2 | 14.5 | 0.00 | 0.00 | 0.00 | 70 | 1016.8 |
| 20260508033042 | 19 | 51 | 4.8 | 12.9 | 0.00 | 0.00 | 0.00 | 69 | 1013.6 |
| 20260508033028 | 18 | 53 | 6.4 | 11.3 | 0.00 | 0.00 | 0.00 | 69 | 1016.8 |
| 20260508031548 | 19 | 43 | 3.2 | 8.0 | 0.00 | 0.00 | 0.00 | 68 | 1014.2 |
| 20260508031528 | 19 | 42 | 4.8 | 8.0 | 0.00 | 0.00 | 0.00 | 69 | 1017.4 |